Content
SEND FEEDBACK

Daily
Averages
Monthly
Summary
United States of America

NEW YORK - CENTRAL PARK, NEW YORK


Home > North America > United States > New York
Elevation: 14 feet     Latitude: 40 47N     Longitude: 073 58W

WEATHER
 
SELECT A DAY
Number of Records: 153,271;   Date Range: 11/1/95 - 12/27/14
 
SHARE

PRINT THIS DATA

[ ← Previous Day ]
WEATHER ALMANAC - DECEMBER 17, 2013
[ Next Day → ]
[ °C ]   °F
Weather ElementAverageHighLow
Temperature27.6 °F32 °F (1:51 pm)24.1 °F (11:51 pm)
Dewpoint20.9 °F28 °F (1:51 pm)6.1 °F (1:51 am)
Humidity76.9 %85 % (12:51 pm)41 % (1:51 am)
Barometer30.06 in30.22 in (1:51 am)29.94 in (2:51 pm)
Wind Speed6.4 mph11.5 mph (1:51 pm)
Weather ElementAverage
Visibility4.3 mi
Wind DirectionENE (55.6 °)

Weather ElementTotal
Precipitation0.44 in
Heating Degree Days37 (Base 65)
Averaged from 50 records on December 17, 2013
WEATHER CONDITIONS BREAKOUT
WIND DIRECTION BREAKOUT
WEATHER BY HOUR - DECEMBER 17, 2013
[ °C ]   °F
Local TimeTemperatureDewpointHumidityBarometerVisibilityWind DirectionWind SpeedGust SpeedPrecipitationEventsConditions
1:51 AM27.0 °F6.1 °F41 %30.22 in10.0 miNE (40°)4.6 mphOvercast
2:51 AM27.0 °F8.1 °F45 %30.21 in10.0 miENE (70°)6.9 mphOvercast
3:51 AM27.0 °F8.1 °F45 %30.19 in10.0 miSE (130°)4.6 mphOvercast
4:51 AM28.0 °F10.0 °F47 %30.17 in10.0 miVariable5.8 mphOvercast
5:37 AM27.0 °F9.0 °F47 %30.20 in4.0 miSE (130°)5.8 mph0.00 inSnowLight Snow
5:51 AM27.0 °F12.0 °F53 %30.19 in4.0 miESE (110°)6.9 mph0.00 inSnowLight Snow
5:56 AM26.1 °F14.0 °F60 %30.21 in1.8 miVariable3.5 mph0.00 inSnowLight Snow
6:51 AM25.0 °F19.0 °F78 %30.19 in1.0 miEast (100°)3.5 mph0.01 inSnowLight Snow
7:23 AM25.0 °F19.9 °F81 %30.20 in0.8 miESE (110°)5.8 mph0.01 inSnowLight Snow
7:46 AM24.8 °F19.4 °F80 %30.19 in1.0 miESE (120°)8.1 mph0.01 inSnowLight Snow
7:51 AM25.0 °F19.0 °F78 %30.17 in1.2 miESE (120°)9.2 mph0.01 inSnowLight Snow
7:57 AM25.0 °F19.0 °F78 %30.19 in2.5 miVariable5.8 mph0.00 inSnowLight Snow
8:04 AM25.0 °F19.0 °F78 %30.19 in6.0 miSE (130°)8.1 mph0.00 inHaze
8:35 AM26.1 °F19.9 °F78 %30.18 in4.0 miEast (80°)10.4 mph0.00 inSnowLight Snow
8:51 AM26.1 °F19.9 °F78 %30.15 in3.0 miVariable6.9 mph0.00 inSnowLight Snow
9:32 AM27.0 °F21.0 °F78 %30.15 in3.0 miEast (100°)6.9 mph0.01 inOvercast
9:51 AM27.0 °F21.9 °F81 %30.14 in2.5 miVariable4.6 mph0.01 inSnowLight Snow
10:00 AM27.0 °F21.9 °F81 %30.16 in4.0 miNE (50°)8.1 mph0.00 inHaze
10:12 AM27.0 °F21.9 °F81 %30.15 in6.0 miVariable4.6 mph0.00 inHaze
10:51 AM28.0 °F23.0 °F81 %30.08 in5.0 miEast (90°)10.4 mph0.00 inHaze
11:12 AM28.0 °F23.0 °F81 %30.09 in1.8 miEast (80°)8.1 mph0.00 inSnowLight Snow
11:23 AM28.0 °F23.0 °F81 %30.08 in0.5 miEast (90°)8.1 mph0.01 inSnowSnow
11:51 AM28.9 °F24.1 °F82 %30.03 in0.5 miENE (60°)10.4 mph0.03 inSnowSnow
12:44 PM30.0 °F25.0 °F82 %30.01 in1.0 miENE (70°)6.9 mph0.02 inSnowLight Snow
12:51 PM30.0 °F26.1 °F85 %29.99 in1.2 miVariable4.6 mph0.02 inSnowLight Snow
1:05 PM30.0 °F26.1 °F85 %30.00 in0.5 miVariable4.6 mph0.02 inFog-SnowSnow
1:18 PM30.9 °F27.0 °F85 %29.99 in1.0 miENE (70°)8.1 mph0.02 inSnowLight Snow
1:25 PM30.9 °F27.0 °F85 %29.98 in0.5 miENE (70°)6.9 mph0.03 inFog-SnowSnow
1:51 PM32.0 °F28.0 °F85 %29.95 in1.2 miENE (70°)11.5 mph0.06 inSnowLight Snow
1:59 PM32.0 °F28.0 °F85 %29.96 in3.0 miENE (70°)5.8 mph0.00 inOvercast
2:51 PM30.0 °F26.1 °F85 %29.94 in4.0 miCalm0.00 inOvercast
2:58 PM30.9 °F26.1 °F82 %29.96 in2.5 miVariable4.6 mph0.00 inRainLight Freezing Rain
3:23 PM30.9 °F27.0 °F85 %29.96 in3.0 miENE (60°)6.9 mph0.02 inRainLight Freezing Rain
3:31 PM30.9 °F26.1 °F82 %29.97 in2.5 miVariable4.6 mph0.03 inRainLight Freezing Rain
3:46 PM30.0 °F26.1 °F85 %29.96 in3.0 miVariable5.8 mph0.03 inSnowLight Snow
3:56 PM30.0 °F26.1 °F85 %29.98 in2.0 miVariable4.6 mph0.01 inSnowLight Snow
4:03 PM28.9 °F25.0 °F85 %29.98 in1.2 miNorth0.01 inSnowLight Snow
4:16 PM28.0 °F24.1 °F85 %29.98 in0.5 miVariable5.8 mph0.01 inFog-SnowSnow
4:36 PM27.0 °F23.0 °F85 %29.98 in1.8 miVariable5.8 mph0.02 inSnowLight Snow
4:40 PM27.0 °F23.0 °F85 %29.99 in3.0 miVariable5.8 mph0.02 inSnowLight Snow
4:51 PM27.0 °F23.0 °F85 %29.96 in5.0 miNNE (20°)9.2 mph0.02 inOvercast
4:58 PM27.0 °F21.9 °F81 %29.98 in7.0 miNorthOvercast
5:51 PM26.1 °F21.0 °F81 %29.97 in7.0 miVariable4.6 mphOvercast
6:25 PM26.1 °F21.0 °F81 %30.00 in10.0 miVariable5.8 mphOvercast
6:51 PM26.1 °F19.9 °F78 %29.99 in10.0 miNNE (30°)8.1 mphOvercast
7:51 PM25.0 °F19.0 °F78 %29.99 in10.0 miVariable6.9 mphMostly Cloudy
8:51 PM25.0 °F19.0 °F78 %29.97 in10.0 miNorth (360°)8.1 mphScattered Clouds
9:51 PM25.0 °F19.0 °F78 %29.96 in10.0 miNorth (10°)3.5 mphClear
10:51 PM25.0 °F19.0 °F78 %29.96 in10.0 miNNW (340°)6.9 mphMostly Cloudy
11:51 PM24.1 °F18.0 °F77 %29.94 in10.0 miVariable3.5 mphOvercast
Hourly data recorded from KNYC, located miles away from New York - Central Park, New York







STORIES FROM OUR PARTNERS